Mars Hill, North Carolina, United States (28754)
Lat: 35.83N, Lon: 82.55W
Wx Zone: NCZ048
Local Info
Past Weather Observations for Today

NOTE: This archive is for the closest National Weather Service station to Mars Hill. Information may differ from the station used for current weather conditions.

Click here for Long-term Archive

Time Weather Temperature Dewpoint Humidity Pressure Winds Precip Visibility
16:54
Mostly Cloudy
Thunder Storms
77°F / 25°C 63°F / 17°C 61% 29.95 in
(1014 mb)
SSW 5.8 mph
(SSW 9 kph)
- 10SM
16:51
Mostly Cloudy
Thunder Storms
77°F / 25°C 63°F / 17°C 61% 29.95 in
(1014 mb)
SSW 5.8 mph
(SSW 9 kph)
- 10SM
16:19
Mostly Cloudy
79°F / 26°C 61°F / 16°C 54% 29.95 in
(1014 mb)
NNW 6.9 mph
(NNW 11 kph)
- 10SM
15:54
Mostly Cloudy
Thunder Storms
79°F / 26°C 61°F / 16°C 54% 29.92 in
(1013 mb)
NW 6.9 mph
(NW 11 kph)
- 10SM
15:39
Mostly Cloudy
Thunder Storms
81°F / 27°C 61°F / 16°C 51% 29.95 in
(1014 mb)
N 8.1 mph
(N 13 kph)
- 10SM
15:24
Clear
Thunder Storms
81°F / 27°C 63°F / 17°C 54% 29.95 in
(1014 mb)
NNW 9.2 mph
(NNW 15 kph)
- 10SM
14:54
Mostly Cloudy
81°F / 27°C 61°F / 16°C 51% 29.92 in
(1013 mb)
N 8.1 mph
(N 13 kph)
- 10SM
13:54
Partly Cloudy
81°F / 27°C 61°F / 16°C 51% 29.95 in
(1014 mb)
Variable 3.5 mph
(Variable 6 kph)
- 10SM
12:54
Partly Cloudy
79°F / 26°C 61°F / 16°C 54% 29.98 in
(1015 mb)
NW 3.5 mph
(NW 6 kph)
- 10SM
11:54
Mostly Cloudy
77°F / 25°C 63°F / 17°C 61% 30.01 in
(1016 mb)
Calm - 10SM
10:54
Partly Cloudy
73°F / 23°C 63°F / 17°C 69% 30.04 in
(1017 mb)
Calm - 10SM
10:49
Partly Cloudy
73°F / 23°C 63°F / 17°C 69% 30.04 in
(1017 mb)
Calm - 10SM
09:57
Partly Cloudy
70°F / 21°C 63°F / 17°C 78% 30.06 in
(1018 mb)
N 3.5 mph
(N 6 kph)
- 2SM
09:54
Partly Cloudy
70°F / 21°C 63°F / 17°C 78% 30.06 in
(1018 mb)
Variable 3.5 mph
(Variable 6 kph)
- 2SM
09:52
Partly Cloudy
70°F / 21°C 63°F / 17°C 78% 30.06 in
(1018 mb)
N 5.8 mph
(N 9 kph)
- 2SM
08:54
Overcast
66°F / 19°C 63°F / 17°C 88% 30.06 in
(1018 mb)
N 5.8 mph
(N 9 kph)
- 2SM
07:54
Overcast
64°F / 18°C 63°F / 17°C 94% 30.06 in
(1018 mb)
N 4.6 mph
(N 7 kph)
- 2SM
07:48
Overcast
64°F / 18°C 63°F / 17°C 94% 30.04 in
(1017 mb)
N 4.6 mph
(N 7 kph)
- 2SM
07:44
Overcast
64°F / 18°C 63°F / 17°C 94% 30.04 in
(1017 mb)
NNW 4.6 mph
(NNW 7 kph)
- 9SM
07:02
Overcast
64°F / 18°C 61°F / 16°C 88% 30.04 in
(1017 mb)
Calm - 9SM
06:54
Overcast
64°F / 18°C 63°F / 17°C 94% 30.04 in
(1017 mb)
Calm 0.00 in
(0.00 mm)
9SM
06:01
Overcast
Light Rain
64°F / 18°C 63°F / 17°C 94% 30.04 in
(1017 mb)
Calm 0.00 in
(0.00 mm)
7SM
05:54
Overcast
Light Rain
64°F / 18°C 63°F / 17°C 94% 30.04 in
(1017 mb)
Calm 0.04 in
(1.02 mm)
9SM
05:19
Overcast
Light Rain
64°F / 18°C 61°F / 16°C 88% 30.04 in
(1017 mb)
Calm 0.02 in
(0.51 mm)
8SM
04:54
Overcast
Light Rain
64°F / 18°C 61°F / 16°C 88% 30.04 in
(1017 mb)
Calm 0.04 in
(1.02 mm)
6SM
04:52
Overcast
Light Rain
64°F / 18°C 61°F / 16°C 88% 30.04 in
(1017 mb)
Calm 0.04 in
(1.02 mm)
6SM
04:41
Overcast
Light Rain
64°F / 18°C 61°F / 16°C 88% 30.06 in
(1018 mb)
Calm 0.03 in
(0.76 mm)
7SM
04:01
Overcast
64°F / 18°C 61°F / 16°C 88% 30.06 in
(1018 mb)
Calm - 10SM
03:54
Overcast
64°F / 18°C 61°F / 16°C 88% 30.06 in
(1018 mb)
Calm - 10SM
02:54
Overcast
64°F / 18°C 61°F / 16°C 88% 30.06 in
(1018 mb)
Calm - 10SM
01:54
Overcast
64°F / 18°C 61°F / 16°C 88% 30.06 in
(1018 mb)
SE 3.5 mph
(SE 6 kph)
- 10SM
01:13
Overcast
64°F / 18°C 61°F / 16°C 88% 30.09 in
(1019 mb)
SSE 3.5 mph
(SSE 6 kph)
- 10SM
00:54
Mostly Cloudy
64°F / 18°C 61°F / 16°C 88% 30.09 in
(1019 mb)
SE 4.6 mph
(SE 7 kph)
- 10SM
00:10
Partly Cloudy
64°F / 18°C 61°F / 16°C 88% 30.09 in
(1019 mb)
SSE 3.5 mph
(SSE 6 kph)
- 10SM
Time Weather Temperature Dewpoint Humidity Pressure Winds Precip Visibility


Weather for websites

WeatherForYou.com, LLC is not responsible for any damages or problems caused by this service. Current weather conditions are obtained from the closest station including government and personal stations which may have varying degrees of accuracy. Weather forecasts are derived from the NOAA NDFD. Like all things, this site belongs to Jesus Christ... He just trusts us to maintain it. If you have any questions or comments email webmaster@weatherforyou.com

Copyright © 2016, WeatherForYou.com LLC. All rights reserved.